Wind_Speed
48 46 49 56 59 61 60 59 60 61 61 59 56 53 52 51 52 54 56 57 56 53 50 48 46 45 42 38 34 30 29 29 29 30 31 31 31 32 32 32 32 31 31 31 30 28 29 30 30 31 33 34 36 38 40 41 42 42 42 41 40 40 41 41 41 40 41 42 41 40 38 38 38 37 37 37 37 38 38 39 38 38 39 40 41
55 51 47 49 53 57 58 56 56 57 59 56 52 50 50 51 53 54 55 54 52 49 47 46 45 43 41 39 36 34 33 32 32 32 32 32 32 33 33 33 33 33 33 33 31 29 28 29 30 31 32 33 35 37 40 42 43 43 43 42 42 41 42 43 42 40 40 39 38 38 38 38 39 38 36 35 34 35 35 36 37 40 42 44 46
57 53 47 46 48 53 56 55 52 52 54 55 53 50 48 48 49 50 50 49 48 47 46 46 44 43 41 40 38 38 37 36 36 34 33 33 33 34 34 34 35 35 35 34 31 29 29 30 31 32 32 33 35 36 38 41 42 43 43 43 42 42 43 44 42 38 36 36 37 40 41 40 39 38 36 35 34 34 36 38 41 44 47 49 52
59 55 48 43 43 48 54 56 54 49 48 50 51 50 47 46 47 47 46 46 45 44 44 44 44 43 43 42 42 41 40 39 38 35 34 33 34 35 36 37 38 37 36 33 31 30 30 31 32 32 33 34 35 36 38 39 40 41 42 43 43 42 43 44 42 40 38 39 41 42 41 40 39 37 37 38 38 39 42 44 46 48 50 53 55
56 52 47 41 40 46 52 56 57 54 50 49 51 52 51 49 47 45 45 45 45 44 44 45 45 45 45 45 44 43 41 39 37 35 35 35 36 38 38 39 38 37 35 33 32 32 32 32 33 32 33 35 35 35 36 37 38 39 41 43 43 43 43 44 44 44 44 46 46 44 42 40 39 38 39 40 42 44 47 49 51 52 53 55 58
49 44 42 40 40 45 51 55 57 57 54 53 53 54 54 52 49 48 47 46 46 46 46 47 48 48 47 45 44 42 40 39 37 37 37 38 39 39 38 38 36 35 33 33 33 34 33 34 34 34 36 38 36 34 34 34 35 37 38 40 42 43 43 45 46 48 50 50 48 45 43 42 41 42 42 44 46 48 50 53 55 56 58 59 62
44 37 38 40 43 46 50 53 55 56 56 56 55 54 54 52 51 51 50 49 48 47 47 48 48 47 45 43 41 40 39 39 38 38 38 38 38 37 37 37 35 34 33 32 33 34 35 36 36 37 40 40 37 35 36 36 35 34 35 36 39 40 41 43 47 50 51 49 46 45 45 45 45 46 47 49 51 52 54 57 59 60 62 63 66
36 31 34 40 45 49 51 53 54 55 55 55 54 54 53 52 51 51 50 49 48 48 47 46 46 44 42 40 40 39 39 39 39 39 39 38 37 37 37 36 35 34 34 33 33 34 36 37 38 40 42 41 37 35 36 38 38 37 37 37 39 42 43 45 47 48 48 48 47 47 48 49 50 50 51 54 56 58 60 62 64 65 65 67 69
30 30 35 40 46 50 51 53 55 55 53 51 49 50 50 51 52 51 50 48 47 47 45 43 41 40 40 40 41 40 39 39 40 40 40 39 38 38 38 37 36 36 36 36 35 36 38 40 42 44 43 40 37 35 35 38 40 41 42 42 44 47 47 47 47 47 47 48 48 49 51 52 54 55 56 58 60 63 66 68 69 69 70 71 72
34 36 39 40 43 45 46 50 52 51 49 47 45 45 47 50 51 51 50 48 47 45 43 41 41 42 44 44 44 43 43 43 42 41 40 38 38 38 38 38 39 39 39 39 39 40 42 45 46 45 42 40 38 37 36 38 41 43 45 45 47 49 49 50 50 50 50 50 50 52 54 56 58 59 61 63 65 69 71 73 74 74 74 75 76
39 40 40 39 40 39 38 43 46 45 45 45 45 45 46 49 50 49 49 49 47 46 46 46 48 49 49 49 47 47 46 44 43 42 42 40 39 39 40 40 41 42 42 43 44 45 46 47 46 45 43 41 40 39 39 39 41 44 46 47 48 50 51 52 52 53 53 53 54 55 58 60 61 63 64 67 69 73 76 77 77 77 78 79 80
40 41 43 45 46 43 41 43 45 44 44 44 44 44 45 47 47 47 48 47 47 47 49 50 52 52 53 52 51 50 48 46 45 45 44 42 41 40 41 42 43 45 46 47 47 47 47 47 46 45 44 43 42 43 43 43 44 45 47 49 50 51 52 53 54 54 55 56 57 58 61 64 66 67 69 71 74 77 80 81 81 81 82 82 82
40 39 44 48 49 48 49 49 48 46 45 45 44 45 46 46 46 46 46 45 46 47 48 49 50 51 51 51 51 50 49 48 47 46 44 42 40 41 42 44 45 47 47 48 48 48 48 48 47 46 45 45 44 45 46 47 48 49 50 51 52 52 54 55 56 57 57 58 59 62 65 68 71 73 75 77 80 81 82 83 84 85 84 84 83
40 40 46 49 48 47 50 51 50 47 45 44 44 44 44 43 43 44 44 44 46 47 47 48 49 50 51 52 52 51 50 49 47 45 44 43 42 44 45 46 46 47 48 49 49 50 50 48 47 45 45 45 46 47 48 49 50 52 53 54 55 56 57 58 58 58 59 60 63 67 71 74 77 79 81 83 84 85 85 86 86 86 86 86 86
44 45 47 49 47 46 48 50 49 47 45 43 42 42 42 42 42 43 45 46 47 47 49 50 52 53 54 55 55 54 52 51 49 47 46 46 47 48 49 49 49 49 50 51 51 50 49 48 47 47 47 48 49 50 51 52 54 56 57 58 59 60 60 60 60 61 63 66 70 74 77 79 81 83 85 86 87 88 88 88 88 88 87 87 86
45 46 46 46 46 47 48 49 49 49 48 45 43 42 43 45 46 47 49 50 51 53 55 56 57 58 59 60 59 57 55 53 51 50 50 51 52 52 52 52 52 51 52 51 50 49 48 48 49 49 50 51 53 53 55 56 58 59 60 61 62 62 62 64 66 69 72 75 77 80 82 83 85 86 87 88 89 90 90 90 90 90 89 88 85
45 45 45 45 47 49 50 51 51 52 52 51 49 49 50 51 51 53 56 58 59 60 61 62 62 62 62 62 60 58 56 55 53 53 55 56 56 55 55 54 54 53 52 52 51 51 51 52 52 52 53 55 56 58 59 60 61 62 63 65 66 67 69 71 74 76 78 79 81 83 85 86 87 88 89 90 91 92 92 91 91 90 88 86 83
46 46 47 48 49 50 51 52 53 54 54 54 55 56 56 56 55 57 59 61 62 62 63 64 63 62 61 59 57 56 55 55 56 58 59 60 59 58 57 55 54 54 54 54 54 55 56 56 57 58 60 61 62 63 65 65 65 66 67 69 71 73 74 76 78 79 82 84 86 87 88 89 90 91 92 93 93 94 93 91 90 89 86 83 81
51 49 49 50 51 52 52 53 54 55 55 55 55 56 57 57 56 56 57 58 59 60 61 62 62 61 60 58 57 56 56 58 59 61 61 61 60 59 58 57 56 56 56 56 56 57 58 60 61 62 64 64 65 65 66 67 68 69 71 73 75 76 78 80 83 85 87 88 89 90 91 92 93 94 94 95 95 94 92 90 88 87 85 84 85
59 55 52 52 54 55 55 54 54 55 56 56 55 55 55 56 57 57 57 57 57 58 60 61 62 62 61 60 59 59 60 61 62 62 62 61 60 59 58 58 58 58 58 58 58 58 59 61 62 63 64 64 65 66 68 70 72 74 76 77 79 81 84 86 88 90 91 92 93 94 95 96 96 96 96 95 93 92 90 88 87 85 85 88 90
63 62 60 59 58 59 58 56 56 56 58 58 58 56 56 56 57 58 59 60 61 61 62 63 65 65 65 64 64 65 65 64 63 62 61 60 59 59 59 59 59 59 59 60 60 60 60 62 64 65 66 67 68 71 73 76 78 80 82 83 85 87 89 91 92 94 95 96 96 97 97 98 98 97 95 93 91 90 89 89 89 90 90 92 94
64 66 66 65 63 62 60 59 59 59 60 60 60 59 58 58 59 59 60 61 62 62 63 64 65 65 66 66 66 66 65 63 61 60 59 59 59 60 61 61 61 62 62 62 63 63 63 65 68 71 72 74 76 78 80 81 83 84 86 88 91 92 94 95 96 98 99 99 100 100 99 98 97 96 94 93 92 92 92 93 95 96 97 97 98
66 68 68 67 66 64 63 63 63 63 63 63 61 61 61 61 61 61 61 61 61 60 61 62 62 62 63 64 64 63 63 62 61 61 60 60 61 62 63 64 64 65 65 66 67 68 69 71 75 78 80 82 83 84 84 85 87 89 92 94 96 97 98 99 100 100 101 102 101 100 99 97 97 96 96 96 96 97 97 98 100 101 101 103 104
67 68 70 70 68 67 66 66 66 66 66 65 64 63 63 62 62 62 62 62 62 63 64 64 64 64 65 65 65 65 64 64 65 65 66 66 66 66 68 69 69 70 71 73 74 76 77 79 81 83 84 85 85 86 88 90 93 96 98 99 100 101 101 102 102 103 103 102 101 100 99 99 99 99 99 100 101 102 102 103 103 103 104 105 105
70 69 70 71 71 70 70 69 70 70 70 69 68 67 66 65 64 64 64 64 65 66 67 67 67 68 67 67 68 68 68 68 70 71 71 72 72 73 73 75 75 76 77 79 80 82 83 84 85 85 86 87 88 91 93 96 99 101 102 102 103 103 104 104 104 103 102 101 100 100 101 101 102 103 104 106 107 107 106 106 105 106 106 105 105
73 72 72 73 73 73 73 73 73 73 73 73 72 71 71 70 70 70 69 69 69 69 69 70 70 69 69 69 69 69 70 72 73 73 73 74 76 77 77 78 79 79 80 82 83 84 85 86 87 88 90 92 95 97 99 101 103 103 104 105 106 106 106 105 103 102 101 100 101 102 103 105 106 108 109 111 111 111 109 108 108 108 107 106 105
77 76 75 75 75 76 76 76 76 77 76 76 75 75 75 75 74 74 74 73 73 73 73 73 73 72 72 72 71 70 71 74 76 76 75 76 77 78 79 80 81 82 83 85 86 87 89 91 93 95 97 99 100 102 103 104 105 106 107 107 107 106 105 103 102 101 101 101 103 105 107 109 111 112 113 114 114 113 111 110 110 110 108 106 105
82 80 79 79 79 78 77 77 77 78 78 77 77 77 78 78 77 76 76 76 76 76 77 77 77 76 77 77 77 76 77 78 80 81 82 82 82 82 83 84 85 86 88 90 92 94 97 99 100 101 102 103 105 106 106 107 107 108 108 107 106 104 103 102 102 102 103 105 107 109 111 113 115 116 117 116 115 114 113 111 110 109 107 105 103
84 84 83 82 82 82 81 80 79 79 79 79 79 78 79 79 79 79 79 79 79 80 80 80 80 81 82 82 81 81 82 83 85 86 87 88 88 89 89 90 91 93 95 97 100 101 102 103 104 105 106 107 108 108 109 109 108 108 106 105 104 104 104 104 105 106 107 109 111 113 115 117 118 118 118 117 116 114 112 110 108 106 104 102 100
87 86 86 86 86 86 86 86 85 83 82 82 82 82 82 81 81 81 82 82 83 83 83 84 84 85 85 85 85 85 86 87 88 89 90 90 92 93 94 96 98 100 102 103 104 105 105 106 107 108 109 109 109 109 109 108 107 106 105 104 104 105 106 108 110 111 113 114 116 117 118 118 118 117 116 115 114 112 110 107 104 101 99 96 94
91 90 90 89 89 89 89 90 90 90 89 88 87 86 86 86 86 86 86 86 86 86 86 87 87 87 88 88 88 89 89 90 91 92 94 95 97 99 101 103 104 105 106 106 107 107 108 109 109 110 109 109 109 108 107 106 104 104 104 105 106 108 111 113 115 116 117 118 118 119 118 117 116 115 113 112 110 108 106 103 99 95 92 88 85
95 95 94 93 93 92 92 92 92 93 94 94 93 93 92 91 91 91 91 92 92 92 92 92 93 93 94 94 94 95 96 97 98 99 101 102 103 104 104 105 106 107 108 108 109 109 109 109 109 109 108 108 107 106 105 105 105 105 107 109 111 114 116 118 119 120 119 119 118 117 116 116 114 112 110 107 105 101 98 95 92 88 85 81 78
97 97 97 97 97 96 96 95 95 95 95 96 96 97 97 97 97 96 96 97 97 98 98 98 99 100 101 101 102 103 103 104 105 106 106 106 106 107 107 108 108 109 110 110 110 110 110 110 109 109 108 107 106 106 106 107 109 110 112 114 116 118 119 120 120 120 119 118 117 116 114 113 110 107 104 101 97 93 89 86 83 80 78 75 72
98 98 99 99 100 100 100 99 99 98 98 98 98 98 99 100 101 101 101 102 103 103 103 104 104 105 106 106 107 107 108 108 108 108 108 108 108 108 109 109 109 110 110 109 109 109 109 109 109 108 108 107 108 108 109 111 113 115 116 118 118 119 119 119 119 118 117 116 115 113 110 106 102 99 96 93 89 85 81 78 76 74 71 69 66
98 99 100 101 102 102 103 103 103 103 103 102 102 102 102 102 102 103 104 104 105 105 106 106 107 107 107 107 107 108 108 108 108 108 109 109 109 109 109 109 109 109 109 108 108 108 108 109 109 109 109 110 111 112 114 115 117 118 119 120 120 119 118 118 116 115 113 111 108 105 101 97 93 89 87 84 81 78 75 72 70 68 66 63 62
96 98 100 101 102 103 103 104 105 105 105 106 106 106 106 106 105 105 105 106 106 106 106 106 106 107 107 107 107 107 108 108 109 109 109 109 109 109 108 108 108 108 108 109 109 109 109 110 111 112 113 114 115 116 118 119 120 120 120 120 119 118 117 115 113 110 107 103 99 96 92 88 85 82 79 76 74 71 69 67 65 63 60 59 59
91 95 98 101 102 103 104 105 105 105 106 106 106 107 107 107 107 107 107 107 106 106 106 107 107 107 108 108 108 108 109 109 109 109 109 109 109 109 109 109 109 109 110 110 111 111 111 112 113 114 115 116 118 119 120 120 121 120 120 119 118 116 114 110 107 103 99 95 92 88 85 82 79 76 73 70 68 66 64 62 61 60 57 56 57
89 91 93 96 98 101 103 104 105 106 107 107 107 108 108 108 108 108 108 109 109 108 108 109 109 109 110 110 110 110 110 110 110 111 110 110 110 110 111 111 111 111 112 112 112 113 113 115 116 116 117 118 119 120 120 120 120 120 119 117 114 111 107 103 100 96 93 90 86 82 79 77 74 71 68 66 65 63 61 59 59 58 56 54 54
91 91 92 93 94 96 98 100 102 103 105 106 107 107 108 108 108 108 109 109 110 109 110 110 110 111 111 111 111 111 110 111 111 111 111 111 111 111 112 112 112 113 113 114 114 115 116 117 117 118 119 119 120 120 120 120 119 117 115 111 108 104 101 97 94 91 88 84 80 76 74 72 70 67 65 64 62 61 58 57 56 55 54 53 52
93 93 94 94 95 95 96 98 99 100 101 102 103 103 104 105 105 106 106 107 107 107 108 108 108 108 109 109 109 109 109 109 110 110 111 111 111 112 112 113 113 114 115 115 116 117 117 118 119 119 119 120 120 120 119 117 115 112 108 106 103 99 96 92 89 85 81 78 75 72 70 68 66 64 62 62 61 58 56 54 53 53 52 51 50
93 94 95 96 97 97 98 98 99 99 100 100 101 101 102 102 102 102 103 103 104 105 105 105 106 106 106 107 107 108 108 109 109 110 110 111 112 112 113 114 114 115 116 116 117 118 119 119 119 119 119 119 119 117 115 112 109 107 104 102 99 94 90 86 82 78 76 73 71 69 67 65 63 61 60 59 58 56 54 52 51 50 49 48 47
94 95 96 97 98 99 99 99 100 101 101 102 102 102 102 102 103 103 103 103 104 104 105 105 105 106 106 106 107 108 108 109 109 110 111 112 112 113 114 115 115 116 117 117 118 118 119 119 119 119 118 116 114 111 109 107 106 103 101 97 92 87 83 79 76 73 71 69 68 67 65 63 61 59 57 56 55 54 52 49 48 47 46 45 44
95 95 97 98 99 99 100 100 101 102 102 102 103 103 103 103 104 104 105 105 105 106 106 107 107 107 108 108 108 109 109 110 110 111 112 112 113 114 115 115 116 117 117 118 118 118 118 117 116 115 113 111 109 107 106 104 101 98 94 89 84 80 76 74 71 69 68 66 65 64 62 60 58 56 55 53 52 50 49 47 46 45 44 43 42
96 97 98 99 100 100 100 101 102 102 103 103 104 104 104 104 105 105 106 106 106 107 107 108 108 109 109 109 110 110 110 111 111 112 112 113 114 114 115 116 116 117 117 117 117 116 114 113 112 110 109 107 106 104 101 98 94 90 85 81 78 74 72 69 68 66 65 63 62 61 59 57 55 53 51 50 49 47 46 45 43 42 42 41 40
93 95 97 98 100 100 101 102 103 103 104 104 105 105 105 106 106 106 107 107 108 108 108 109 109 110 110 110 111 111 111 112 112 113 113 114 114 114 115 115 115 115 114 113 112 111 110 109 108 107 105 102 100 96 93 89 86 82 79 75 73 70 68 66 65 63 62 60 59 58 56 54 52 49 48 47 46 44 43 42 41 40 40 39 38
87 89 91 93 96 98 99 101 102 103 104 105 105 106 106 107 107 107 108 108 108 109 109 110 110 110 111 111 111 112 112 112 112 113 113 113 113 113 113 112 112 111 111 110 109 108 107 105 103 101 97 94 91 88 84 82 79 76 73 71 68 66 65 63 62 60 58 57 56 55 53 51 49 47 45 44 43 42 41 40 39 39 38 38 38
83 84 85 87 89 92 94 96 98 100 101 103 104 105 106 107 107 108 108 109 109 110 110 110 110 111 111 111 111 111 111 111 111 111 111 111 110 110 110 109 109 108 107 106 105 102 100 97 94 91 88 85 83 80 78 76 74 72 69 67 65 63 61 60 59 57 55 54 53 52 50 48 46 44 43 41 40 40 39 39 38 38 37 37 37
80 81 82 83 84 86 88 89 91 93 95 97 99 100 102 103 105 106 107 107 108 109 109 109 110 110 110 110 110 110 109 109 109 109 108 108 108 107 106 105 103 102 100 98 96 93 91 88 86 83 80 78 76 74 73 71 69 67 65 63 61 59 58 56 55 54 52 51 50 49 47 45 44 42 41 40 39 38 38 38 38 38 37 37 37
75 77 79 80 81 82 83 85 86 87 89 90 92 94 95 97 98 100 101 102 103 104 105 105 106 106 106 106 106 105 105 104 104 103 103 102 101 100 98 96 95 93 91 89 87 85 82 80 78 76 75 73 71 69 67 65 64 62 61 59 57 55 54 53 52 51 50 49 48 46 45 43 42 40 39 39 38 38 37 37 37 37 37 37 36
70 72 74 75 76 78 79 80 82 83 84 86 87 88 89 91 92 93 94 95 96 97 98 98 98 98 98 98 98 97 97 96 96 95 94 93 92 91 90 89 87 85 83 81 79 77 75 74 72 71 69 67 65 63 62 61 60 59 57 55 53 51 51 50 49 48 48 47 46 44 43 41 40 39 38 37 37 37 37 37 37 37 36 36 36
64 66 68 69 71 72 74 75 77 78 80 81 82 84 85 86 87 88 88 89 90 90 91 91 91 91 91 91 90 90 89 89 89 88 87 86 85 84 83 82 80 78 76 75 73 72 70 68 67 65 63 61 60 59 58 58 57 55 54 52 50 48 48 47 47 46 46 45 44 43 41 40 39 38 37 36 36 36 36 36 36 36 35 35 35
Wind_Direction
233 235 236 236 236 237 237 238 243 245 246 248 250 250 251 251 250 251 255 260 264 267 268 268 270 270 268 266 267 268 268 269 269 269 271 276 281 284 287 288 290 292 294 296 295 288 282 278 275 273 272 271 271 270 270 270 269 270 271 271 272 273 274 274 273 273 274 275 276 278 280 281 283 285 288 288 285 282 280 280 281 287 294 299 303
234 237 239 238 238 238 238 240 242 243 245 247 248 249 251 252 253 254 256 259 262 264 265 266 266 264 264 266 268 271 273 274 274 274 276 278 281 283 284 286 289 292 293 295 294 289 283 280 275 273 273 273 272 271 271 271 271 271 270 269 270 270 270 271 270 272 274 276 277 278 280 281 282 284 286 287 286 283 281 283 289 298 304 307 310
232 235 237 239 240 240 240 241 243 244 243 244 246 249 252 253 253 254 255 258 260 261 262 262 262 262 264 267 270 274 276 277 278 278 278 278 279 280 282 285 289 291 292 292 290 287 284 281 277 275 275 276 276 273 272 272 272 272 270 269 268 267 268 268 268 270 275 280 283 283 283 283 283 285 287 288 289 291 292 296 302 308 310 311 313
229 233 236 237 239 241 241 241 244 245 243 242 242 245 250 253 253 254 255 257 258 260 261 262 263 264 266 270 273 276 277 278 278 277 275 275 276 279 282 286 289 290 290 288 285 284 283 282 279 278 279 282 280 277 275 272 272 272 271 270 268 267 268 267 267 271 277 286 291 289 286 285 285 287 290 294 298 301 304 307 309 311 311 311 312
228 232 236 235 235 241 243 242 243 244 245 244 243 246 251 254 254 255 256 257 258 260 262 264 266 269 271 273 275 276 278 278 277 275 273 274 277 280 284 287 289 289 289 286 283 282 281 281 279 277 280 286 286 283 279 274 271 270 268 268 268 267 268 266 267 272 279 287 292 291 287 287 288 293 297 300 303 305 307 308 310 310 309 308 309
224 229 232 231 231 238 243 243 242 245 248 249 249 250 252 253 254 255 256 258 260 261 262 265 268 271 273 275 276 277 277 276 275 274 274 276 279 282 285 287 288 288 288 286 283 281 279 279 277 275 281 289 289 284 282 278 275 273 271 270 270 269 268 267 269 276 282 286 289 289 290 291 295 301 304 305 306 307 307 307 308 309 309 307 307
221 226 229 228 226 231 239 243 244 247 250 252 253 255 255 255 256 257 258 260 261 262 263 265 267 270 272 274 274 274 274 274 274 274 275 277 279 281 285 288 288 288 288 286 283 280 278 277 276 278 286 291 288 281 279 279 278 277 277 277 276 274 273 272 274 279 284 287 289 292 296 299 302 305 305 306 307 308 307 307 308 308 307 307 306
216 223 227 228 228 231 238 245 247 249 252 253 254 255 256 257 258 259 260 262 263 263 264 264 265 268 270 270 271 272 272 273 274 275 277 280 281 283 286 289 288 288 287 285 283 280 277 276 278 283 288 290 287 281 277 276 276 277 279 280 279 279 279 279 280 283 287 291 295 299 302 304 305 305 304 305 306 307 308 308 307 306 306 305 305
205 212 221 227 231 234 239 245 248 250 252 254 255 256 257 257 257 258 261 262 263 262 262 262 263 266 267 269 270 271 272 273 275 279 281 283 284 285 287 288 287 287 286 285 284 281 278 279 282 286 288 289 287 284 280 277 276 276 277 279 281 283 286 288 290 293 295 297 299 300 302 304 304 303 303 303 304 305 307 307 306 306 305 305 305
200 207 215 223 230 235 239 244 246 247 250 252 252 254 255 256 257 258 258 259 260 260 260 261 263 266 268 270 271 272 272 274 277 280 282 283 283 283 283 284 284 285 285 284 284 283 281 283 285 287 289 289 288 287 283 279 277 276 277 281 285 289 293 295 297 299 299 299 298 299 301 302 303 302 302 301 302 303 305 305 305 304 304 304 303
205 210 215 221 226 229 233 239 242 244 246 249 250 251 253 255 257 258 257 257 258 259 260 262 264 267 270 271 271 271 272 275 278 281 283 282 281 280 281 282 283 284 285 284 284 284 284 285 287 289 291 291 290 289 287 285 282 281 282 286 290 293 295 296 297 297 297 296 297 298 299 301 301 301 300 300 300 301 302 303 303 302 302 302 302
208 214 219 222 225 227 229 236 242 245 247 248 248 249 251 254 257 257 256 258 259 260 261 263 266 268 269 270 270 271 273 276 280 282 283 283 282 280 281 282 283 284 284 284 284 285 285 287 289 290 291 292 291 290 289 289 289 288 288 291 293 293 294 294 294 294 294 294 294 295 297 298 299 299 299 298 299 299 300 300 300 301 301 301 301
208 219 227 227 229 231 232 236 242 246 248 249 249 250 252 254 255 255 257 258 259 261 262 264 265 266 266 267 268 271 274 277 280 282 282 282 281 280 280 281 282 282 283 284 285 285 287 289 291 291 292 292 291 290 290 291 291 291 291 292 293 293 292 292 291 291 292 292 291 292 294 296 297 297 297 297 297 297 297 298 299 300 301 300 300
210 221 232 235 235 233 233 236 240 244 246 247 249 251 252 252 251 252 255 256 258 260 261 261 261 262 262 264 267 271 275 278 280 281 280 280 280 281 281 281 282 283 284 284 285 287 289 291 292 292 292 291 290 289 290 291 291 290 291 292 292 293 292 291 290 290 290 289 290 291 293 294 295 295 296 296 296 296 297 298 299 300 300 299 300
213 219 227 232 233 233 233 235 237 240 241 243 246 249 248 246 246 248 251 253 255 257 258 259 260 262 264 266 270 273 276 278 278 278 278 280 282 283 284 285 285 285 285 285 287 288 290 291 292 291 289 289 289 290 291 291 290 290 291 291 291 291 290 290 289 289 288 288 289 290 292 293 294 294 295 295 296 297 297 298 299 299 299 299 299
217 220 224 227 230 233 235 236 237 238 239 239 241 243 244 244 246 248 250 252 253 255 256 258 261 264 267 269 271 273 274 275 275 276 278 281 283 285 286 286 286 286 286 287 288 288 288 288 289 289 288 288 288 288 288 288 288 289 289 289 288 287 286 287 288 288 288 289 290 291 292 293 294 294 295 295 296 297 297 298 298 298 298 298 298
220 223 225 228 232 235 238 240 241 242 242 241 241 243 246 248 249 251 252 253 254 256 258 260 262 265 268 270 271 272 272 273 274 276 280 283 284 285 286 287 287 287 287 287 286 286 285 285 286 285 285 285 285 284 285 285 285 285 285 286 286 285 285 286 287 288 289 290 291 291 292 293 294 295 295 296 296 297 297 297 297 297 297 297 297
220 224 227 230 233 237 240 242 243 244 245 246 247 249 251 252 253 253 254 256 257 259 261 264 265 266 268 269 270 271 272 274 276 279 282 284 285 286 287 287 286 285 284 284 283 283 283 283 282 282 282 281 281 282 283 283 283 283 283 284 285 285 286 286 287 288 289 290 291 292 293 294 295 295 296 296 296 297 297 297 297 297 297 297 296
218 222 227 230 232 234 236 239 241 243 245 247 248 250 252 253 254 254 255 256 259 261 263 265 266 267 267 268 270 272 274 277 279 281 283 284 285 286 285 284 283 282 281 280 280 279 280 280 280 280 280 280 281 281 282 282 282 283 283 283 284 285 286 286 287 289 290 291 292 293 295 295 296 297 297 297 297 297 298 298 298 299 298 297 296
219 220 224 228 230 231 233 236 239 242 244 246 248 249 250 251 252 253 254 255 257 260 262 264 265 266 267 268 270 272 274 277 279 281 282 283 284 283 282 282 281 280 280 279 279 279 279 279 278 278 278 279 280 281 281 281 282 282 283 283 284 285 287 288 289 291 292 293 295 295 296 296 297 297 297 297 297 298 298 299 299 299 298 297 297
222 222 224 226 228 230 232 234 237 240 242 244 245 246 248 250 252 253 255 256 257 258 260 261 263 265 266 267 269 271 274 276 278 279 280 282 281 280 280 280 279 279 280 280 280 279 278 278 278 278 279 280 280 281 281 282 283 283 284 285 286 288 289 290 292 293 294 296 297 297 297 296 296 296 297 297 297 298 298 298 298 298 298 298 298
224 226 227 229 231 233 234 235 237 238 240 241 242 244 245 247 250 252 254 257 259 260 261 262 264 265 268 270 271 274 276 277 278 278 279 279 279 279 279 279 278 279 279 278 278 278 277 276 277 278 280 281 281 281 282 282 284 285 286 287 289 290 291 293 294 295 296 297 297 296 296 295 295 296 297 298 298 299 299 299 299 299 300 300 300
223 226 228 230 233 235 237 238 238 239 239 240 242 243 244 246 248 251 253 256 258 259 261 262 264 265 267 269 270 272 274 275 275 275 275 275 276 276 276 276 276 276 276 276 275 275 275 275 276 278 280 281 282 282 283 284 285 286 288 289 291 292 294 295 296 296 296 296 296 296 295 296 296 297 298 299 299 300 300 300 300 300 301 301 301
223 226 228 230 232 235 237 239 240 240 240 241 242 243 245 247 249 251 252 254 256 257 258 260 261 262 264 265 266 268 270 271 271 271 271 272 273 272 272 273 273 272 272 273 274 274 275 276 277 278 279 280 281 283 284 285 287 288 290 292 293 294 295 295 295 295 295 295 296 296 296 297 298 299 299 300 300 300 300 300 300 300 300 299 299
222 225 228 230 231 233 236 238 240 240 241 242 243 244 245 247 248 249 250 251 253 255 257 258 260 261 262 263 264 266 268 269 269 269 270 272 272 272 272 272 272 272 272 272 273 274 275 276 277 278 279 280 281 283 285 287 289 291 292 293 293 294 294 295 295 295 295 296 296 296 297 297 298 300 300 300 300 300 300 300 300 300 299 299 298
222 225 228 230 231 232 234 237 239 240 241 242 244 245 246 247 248 248 249 250 252 253 255 256 258 259 261 263 264 266 267 267 268 268 269 270 270 271 271 271 271 272 272 272 273 274 275 276 278 279 280 282 283 285 287 289 290 291 292 293 293 294 295 295 295 296 296 296 296 296 296 297 298 299 300 300 300 300 300 300 300 299 298 298 297
223 224 226 229 230 232 234 236 238 239 241 242 243 245 246 247 248 250 251 252 253 254 255 256 257 259 260 261 263 264 264 265 266 267 267 267 267 268 269 269 270 271 272 273 274 275 276 278 280 282 283 285 286 288 289 290 291 292 293 294 294 295 295 295 296 296 295 295 295 295 296 297 298 298 299 299 299 300 300 300 299 298 298 297 296
225 226 226 228 229 231 233 236 238 239 241 242 244 245 246 247 248 250 251 252 253 254 255 256 258 259 259 260 261 262 262 263 264 266 266 266 266 267 268 269 270 271 272 274 275 277 279 282 284 285 286 288 289 290 290 291 292 293 293 294 295 295 295 295 295 295 295 295 295 295 296 297 297 298 299 299 299 299 299 298 298 297 297 296 294
227 228 229 229 230 231 232 234 236 238 240 241 243 244 246 247 248 249 250 252 253 254 255 256 257 258 259 260 261 261 261 262 263 264 265 266 267 268 269 270 272 273 275 276 279 281 283 284 286 287 287 288 289 290 291 292 293 294 295 295 295 295 295 294 294 294 294 294 295 295 296 296 297 298 298 299 299 298 298 297 297 296 295 294 292
229 230 231 232 233 233 233 234 235 237 238 240 242 244 245 247 248 249 251 252 253 254 255 256 257 258 259 260 260 261 261 262 263 264 265 267 268 270 271 273 274 276 278 280 282 283 284 285 286 287 288 289 291 292 293 294 294 294 294 294 293 293 293 293 293 293 294 294 294 295 296 296 297 297 298 298 298 297 297 296 295 294 293 291 290
230 231 232 234 235 236 236 237 237 238 238 239 241 243 245 247 248 249 251 252 253 254 255 256 257 258 259 260 261 261 262 263 264 265 267 269 271 273 275 276 278 279 281 282 284 285 286 286 287 288 289 290 291 292 293 293 293 292 292 291 291 291 291 292 292 293 294 294 295 296 296 297 297 298 298 297 297 296 295 294 293 292 291 290 289
232 233 234 235 237 238 239 240 240 241 241 242 242 243 245 247 249 250 252 253 254 255 256 257 258 259 260 261 262 263 264 265 267 268 270 272 273 275 277 278 279 281 282 283 284 285 285 286 287 288 289 290 290 291 291 291 290 290 290 290 290 290 291 291 293 294 295 295 296 297 297 298 298 298 297 296 295 294 294 293 292 291 290 289 288
234 235 236 237 238 239 241 242 243 244 245 245 245 246 247 248 249 251 253 254 256 257 258 259 260 261 262 263 265 266 267 268 270 271 272 274 275 276 277 278 279 280 281 282 283 284 285 286 287 288 288 289 289 289 289 289 288 289 289 289 289 290 291 292 293 295 296 297 297 298 298 297 297 297 296 295 294 293 292 292 291 290 290 289 288
237 237 238 239 239 240 242 243 244 245 247 248 249 249 250 250 251 252 253 255 256 258 259 261 262 263 265 266 267 269 270 271 272 273 274 275 276 277 278 279 280 280 281 282 283 284 285 286 286 287 287 287 287 287 287 287 287 288 288 289 290 291 292 293 295 296 296 297 297 297 297 296 296 295 295 294 293 292 292 291 290 290 289 289 289
237 238 239 240 241 242 243 244 245 247 248 249 250 251 252 253 253 254 255 256 257 259 260 262 263 264 266 267 268 269 270 271 272 273 274 275 276 277 278 279 279 280 281 282 283 283 284 285 285 286 286 286 286 286 287 287 288 289 290 291 292 293 294 295 296 296 297 297 296 296 296 295 295 294 294 293 292 292 291 291 290 290 290 290 290
237 238 239 240 241 243 244 245 246 247 249 250 251 252 253 254 255 256 257 258 259 260 261 262 263 264 265 266 267 268 269 270 271 272 273 274 275 276 277 278 278 279 280 281 281 282 283 283 284 285 285 286 286 287 288 289 290 291 292 293 294 295 296 296 297 297 297 296 296 296 296 295 295 294 293 292 292 292 292 291 291 291 291 291 289
239 239 240 240 241 242 243 244 246 247 248 249 250 252 253 254 255 256 257 258 259 260 261 262 262 263 264 265 266 267 268 269 270 271 272 273 274 274 275 276 277 278 279 279 280 281 282 283 284 285 285 286 287 288 289 290 291 292 293 294 295 296 296 297 297 297 297 297 297 297 296 295 294 294 293 293 293 293 293 292 292 292 291 289 287
242 242 242 242 243 243 244 245 246 247 248 249 250 251 252 253 254 255 256 257 258 259 260 261 262 263 263 264 265 266 267 268 269 270 271 272 273 274 275 276 276 277 278 279 280 281 282 283 284 285 286 287 288 289 290 291 292 293 294 295 296 296 296 297 297 298 298 297 297 296 296 295 294 294 295 295 295 294 293 293 292 291 290 289 287
244 244 244 245 245 245 246 246 247 248 249 249 250 251 252 253 254 255 256 257 258 259 260 261 262 263 264 265 265 266 267 268 269 270 271 272 273 274 275 276 277 278 279 280 281 282 283 284 285 286 287 288 289 290 291 292 293 294 295 295 296 297 297 298 298 298 297 297 296 296 295 295 295 296 296 296 295 294 294 293 292 291 290 289 287
245 245 246 246 247 247 248 248 249 249 250 251 251 252 253 254 255 256 257 258 259 260 261 262 262 263 264 265 266 267 268 269 270 271 272 272 274 275 276 277 278 279 280 281 282 283 284 285 286 287 288 289 290 291 292 293 294 294 295 296 297 297 298 298 297 297 296 296 296 296 295 295 296 296 296 295 294 294 294 293 292 290 289 288 287
247 247 248 248 248 248 249 249 250 251 251 252 252 253 254 255 256 257 258 259 260 260 261 262 263 264 265 266 267 268 269 270 271 272 273 274 275 276 277 278 279 280 281 282 283 284 285 286 287 288 289 290 291 291 292 293 294 295 296 296 297 297 297 297 296 296 296 296 296 296 296 296 296 296 295 295 294 294 293 292 291 289 288 287 286
247 248 249 249 250 250 250 251 251 252 252 253 253 254 255 256 256 257 258 259 260 261 262 263 264 264 265 267 268 269 270 271 272 273 274 275 276 277 278 279 280 281 282 282 283 284 285 287 288 288 289 290 291 292 293 294 295 295 295 296 296 296 296 296 296 296 296 296 296 296 296 296 296 295 294 294 293 293 292 291 290 288 287 286 285
248 248 249 249 250 250 251 252 252 253 254 254 255 255 256 257 257 258 259 260 261 262 262 263 264 265 266 267 268 269 270 271 272 273 274 275 276 277 278 279 280 281 282 283 284 285 286 286 287 288 289 291 292 293 293 294 294 294 294 294 295 295 295 296 296 296 296 296 295 295 295 295 295 294 293 293 292 292 291 291 290 288 287 286 285
249 249 249 250 250 251 251 252 253 254 254 255 256 256 257 258 259 259 260 261 262 262 263 264 265 266 267 268 268 269 270 271 272 273 274 275 276 277 278 279 280 281 282 283 284 285 286 287 288 289 290 291 292 292 292 292 292 293 293 294 294 295 295 296 296 296 295 295 294 294 294 294 293 293 293 292 292 291 291 290 290 289 288 287 287
248 249 249 250 251 251 252 252 253 253 254 255 256 257 257 258 259 260 261 262 262 263 264 265 266 267 267 268 269 270 271 272 272 273 274 275 276 277 278 279 280 281 282 283 284 285 286 287 288 289 289 290 290 290 291 291 292 292 293 294 294 295 295 295 295 295 295 294 294 294 294 293 293 293 293 292 292 292 291 291 290 289 289 289 288
250 249 249 249 250 251 251 252 253 254 254 255 256 256 257 258 259 260 261 262 262 263 264 265 266 267 267 268 269 270 271 272 273 273 274 275 276 277 278 279 280 281 282 283 284 285 286 286 287 287 288 289 289 290 290 291 291 292 293 293 294 295 295 295 295 294 294 293 293 293 293 293 293 293 293 292 292 292 292 291 291 290 290 290 289
252 252 251 251 251 251 251 251 252 253 254 254 255 256 257 258 259 259 260 261 262 263 264 265 266 266 267 268 269 270 271 272 273 274 275 276 277 277 278 279 280 281 282 283 283 284 284 285 286 286 287 288 288 289 290 290 291 291 292 293 293 294 294 294 294 293 293 293 293 293 293 293 294 294 293 293 292 292 292 292 292 291 291 290 289
253 253 253 253 253 252 252 253 253 253 254 254 255 255 256 257 258 258 259 260 261 262 263 264 265 266 267 268 269 270 270 271 272 273 274 275 276 277 277 278 279 280 280 281 282 283 284 284 285 286 287 287 288 288 288 289 289 290 291 292 293 293 293 293 293 293 293 294 293 293 293 294 294 294 294 293 293 293 293 292 292 292 291 290 289
254 254 254 254 254 254 254 254 254 255 255 255 256 256 256 257 257 258 259 259 260 261 262 263 263 264 265 266 267 268 269 270 271 272 273 274 274 275 276 277 278 279 280 281 282 282 283 284 285 285 286 286 286 286 287 288 289 290 290 291 292 292 293 293 293 294 294 294 294 294 294 294 293 293 293 293 293 293 293 292 292 292 291 289 288
255 255 255 255 255 255 255 255 255 256 256 256 256 257 257 258 258 259 259 260 260 261 262 263 263 264 265 266 267 268 269 270 271 271 272 273 274 275 276 277 278 279 280 281 281 282 283 283 284 284 284 285 285 286 287 288 289 289 290 291 291 292 293 293 294 294 294 294 294 293 293 293 293 293 293 293 292 292 292 292 292 291 290 289 287
255 255 256 256 256 256 256 256 256 256 257 257 257 258 258 259 259 260 260 261 262 262 263 264 265 265 266 267 268 268 269 270 271 271 272 273 274 275 276 277 278 279 280 281 281 282 282 282 282 282 283 284 285 287 287 288 288 289 290 291 292 292 293 293 294 294 294 293 293 293 293 293 293 292 292 292 292 292 292 291 291 290 289 287 286
Height
10645 10645 10647 10647 10648 10649 10650 10650 10649 10648 10648 10648 10649 10650 10651 10652 10655 10657 10657 10657 10658 10658 10658 10659 10660 10662 10664 10665 10666 10666 10667 10667 10668 10667 10667 10667 10667 10667 10667 10667 10667 10667 10666 10665 10664 10663 10661 10661 10660 10660 10659 10658 10658 10657 10656 10655 10654 10653 10652 10652 10651 10651 10649 10648 10648 10648 10647 10646 10646 10644 10643 10642 10641 10640 10639 10637 10636 10634 10634 10634 10633 10632 10631 10629 10627
10640 10642 10645 10645 10645 10646 10647 10647 10646 10644 10642 10644 10646 10646 10647 10648 10650 10652 10652 10652 10653 10654 10654 10655 10656 10658 10659 10660 10661 10662 10662 10663 10663 10663 10663 10663 10663 10663 10662 10662 10662 10662 10661 10660 10659 10658 10657 10656 10656 10656 10655 10654 10653 10653 10652 10650 10649 10649 10648 10647 10647 10647 10645 10643 10643 10644 10643 10643 10642 10641 10640 10639 10638 10636 10635 10634 10633 10631 10630 10630 10629 10627 10625 10623 10621
10634 10639 10642 10643 10643 10643 10643 10643 10642 10640 10639 10641 10642 10641 10642 10644 10645 10646 10647 10648 10649 10649 10650 10651 10652 10654 10655 10656 10656 10657 10658 10658 10659 10659 10658 10658 10658 10658 10658 10658 10658 10657 10657 10655 10654 10653 10653 10652 10652 10651 10650 10649 10648 10648 10647 10645 10644 10644 10643 10642 10642 10642 10640 10638 10639 10640 10640 10639 10639 10637 10636 10635 10634 10632 10631 10630 10629 10627 10626 10625 10623 10621 10619 10617 10615
10628 10635 10638 10640 10640 10640 10639 10639 10639 10637 10636 10637 10637 10637 10638 10639 10640 10642 10642 10643 10643 10645 10646 10646 10647 10649 10649 10651 10651 10652 10653 10653 10654 10654 10654 10654 10654 10653 10653 10653 10653 10652 10652 10650 10649 10648 10648 10648 10647 10647 10645 10644 10643 10642 10642 10640 10640 10639 10638 10636 10637 10637 10636 10634 10635 10635 10635 10635 10633 10632 10631 10630 10628 10627 10626 10624 10623 10621 10620 10618 10616 10614 10612 10610 10609
10627 10633 10636 10638 10638 10636 10634 10634 10635 10634 10634 10634 10633 10633 10633 10634 10635 10636 10637 10637 10638 10640 10641 10641 10642 10643 10644 10645 10646 10647 10647 10648 10649 10649 10649 10649 10649 10649 10648 10648 10648 10648 10647 10646 10644 10644 10644 10643 10643 10642 10640 10638 10638 10637 10636 10635 10635 10634 10633 10631 10631 10633 10632 10631 10630 10630 10630 10630 10628 10626 10625 10624 10623 10621 10620 10618 10616 10615 10613 10611 10609 10608 10606 10604 10602
10628 10633 10634 10634 10634 10631 10628 10628 10629 10630 10629 10629 10629 10628 10628 10629 10630 10630 10631 10632 10633 10635 10636 10636 10637 10637 10638 10639 10640 10641 10642 10642 10643 10644 10644 10645 10644 10644 10643 10643 10643 10643 10642 10641 10640 10639 10639 10639 10638 10637 10636 10635 10634 10633 10631 10630 10630 10629 10628 10627 10627 10628 10628 10628 10626 10624 10623 10624 10623 10621 10619 10618 10617 10615 10613 10611 10610 10608 10607 10605 10603 10602 10600 10597 10594
10624 10628 10628 10628 10629 10627 10623 10622 10624 10624 10623 10623 10623 10623 10623 10624 10624 10624 10626 10627 10628 10630 10630 10631 10631 10631 10632 10633 10634 10635 10635 10636 10638 10638 10639 10639 10639 10639 10638 10638 10638 10637 10637 10637 10636 10635 10634 10633 10633 10632 10631 10630 10629 10628 10627 10626 10625 10625 10625 10624 10622 10622 10624 10624 10623 10620 10617 10617 10616 10615 10613 10611 10609 10608 10606 10605 10604 10602 10600 10599 10597 10596 10594 10591 10587
10617 10620 10622 10622 10622 10620 10618 10617 10617 10617 10616 10616 10617 10617 10617 10618 10618 10619 10620 10622 10623 10624 10624 10625 10625 10625 10627 10627 10628 10629 10630 10631 10632 10633 10633 10633 10633 10633 10633 10633 10632 10632 10632 10632 10632 10631 10629 10628 10628 10628 10626 10625 10624 10624 10623 10622 10621 10621 10621 10621 10618 10616 10617 10618 10617 10616 10613 10610 10608 10607 10605 10604 10602 10601 10600 10598 10597 10595 10594 10592 10590 10589 10588 10586 10583
10609 10612 10614 10614 10614 10614 10613 10611 10611 10610 10610 10610 10611 10611 10611 10611 10612 10614 10616 10617 10617 10617 10618 10619 10620 10620 10621 10621 10623 10624 10625 10626 10626 10626 10627 10627 10627 10627 10627 10627 10627 10626 10626 10626 10627 10627 10624 10623 10623 10623 10622 10620 10619 10619 10619 10618 10617 10616 10616 10617 10615 10611 10610 10610 10609 10608 10606 10604 10602 10600 10598 10597 10596 10594 10593 10592 10590 10588 10587 10585 10583 10582 10580 10579 10576
10602 10604 10606 10606 10607 10609 10608 10605 10604 10605 10605 10605 10606 10606 10605 10605 10606 10609 10611 10610 10610 10611 10613 10614 10614 10614 10614 10616 10618 10619 10619 10620 10620 10620 10621 10621 10621 10621 10621 10621 10621 10621 10621 10621 10622 10622 10620 10618 10618 10617 10616 10615 10614 10614 10613 10612 10612 10611 10610 10610 10609 10606 10603 10602 10600 10598 10597 10596 10595 10593 10592 10590 10589 10587 10586 10584 10583 10581 10580 10578 10576 10574 10572 10571 10568
10595 10596 10598 10600 10601 10604 10603 10599 10597 10599 10599 10599 10600 10600 10598 10597 10599 10602 10603 10604 10605 10607 10607 10607 10607 10608 10609 10611 10612 10613 10613 10614 10614 10615 10615 10616 10616 10616 10616 10616 10615 10615 10615 10615 10616 10616 10615 10613 10611 10610 10609 10609 10608 10607 10607 10606 10606 10604 10603 10603 10602 10599 10597 10594 10592 10591 10590 10588 10587 10586 10585 10584 10583 10581 10579 10577 10576 10574 10572 10570 10569 10566 10564 10562 10559
10587 10589 10591 10592 10594 10598 10598 10594 10592 10593 10594 10593 10594 10594 10591 10591 10592 10594 10596 10598 10600 10601 10600 10600 10602 10603 10604 10604 10605 10606 10607 10608 10609 10609 10610 10610 10611 10611 10611 10610 10610 10610 10609 10609 10609 10609 10608 10606 10605 10604 10602 10602 10601 10600 10600 10599 10598 10597 10596 10595 10594 10592 10590 10588 10586 10585 10583 10582 10580 10579 10578 10576 10575 10574 10572 10570 10568 10566 10564 10561 10559 10558 10555 10552 10549
10579 10582 10583 10584 10587 10591 10592 10589 10587 10588 10588 10587 10587 10587 10586 10586 10587 10588 10591 10593 10593 10593 10594 10595 10597 10597 10597 10597 10598 10599 10601 10603 10604 10604 10605 10605 10606 10606 10605 10605 10605 10604 10603 10602 10601 10601 10600 10599 10599 10598 10596 10595 10594 10593 10592 10592 10591 10590 10589 10587 10586 10585 10583 10582 10580 10579 10577 10575 10574 10572 10570 10569 10567 10565 10563 10561 10559 10558 10555 10552 10549 10547 10544 10541 10539
10571 10574 10576 10578 10580 10583 10584 10584 10583 10582 10582 10582 10582 10581 10581 10582 10583 10584 10586 10587 10587 10588 10589 10589 10589 10590 10590 10591 10593 10594 10596 10597 10598 10599 10599 10599 10600 10600 10600 10599 10599 10598 10596 10595 10594 10593 10593 10592 10592 10592 10590 10588 10587 10586 10585 10585 10584 10583 10581 10580 10579 10577 10576 10574 10573 10572 10571 10569 10567 10565 10563 10562 10559 10557 10554 10552 10550 10548 10546 10543 10540 10537 10534 10530 10527
10564 10567 10569 10571 10574 10576 10577 10577 10576 10576 10576 10577 10577 10577 10577 10578 10579 10580 10581 10581 10582 10583 10583 10582 10582 10583 10584 10585 10588 10590 10591 10591 10592 10592 10592 10593 10593 10593 10593 10592 10592 10591 10590 10589 10588 10587 10586 10585 10586 10585 10583 10582 10581 10580 10579 10579 10577 10576 10575 10574 10572 10570 10569 10567 10567 10566 10565 10563 10560 10558 10556 10554 10551 10549 10545 10542 10540 10537 10534 10532 10530 10526 10523 10520 10518
10561 10562 10564 10566 10567 10569 10569 10570 10570 10570 10571 10572 10573 10573 10573 10574 10576 10576 10576 10576 10576 10576 10576 10576 10577 10577 10578 10580 10582 10584 10584 10584 10584 10585 10585 10586 10586 10586 10586 10585 10585 10584 10583 10582 10581 10581 10580 10579 10579 10578 10576 10575 10574 10574 10573 10572 10571 10571 10569 10568 10566 10564 10562 10561 10561 10559 10557 10555 10553 10550 10548 10545 10542 10539 10536 10532 10529 10526 10523 10522 10519 10515 10512 10511 10509
10557 10558 10559 10561 10562 10562 10563 10563 10563 10564 10565 10566 10568 10568 10568 10569 10571 10571 10570 10569 10569 10570 10570 10570 10572 10573 10573 10573 10575 10577 10577 10577 10577 10577 10578 10578 10579 10579 10579 10578 10577 10576 10575 10574 10575 10574 10574 10573 10573 10571 10569 10568 10567 10567 10566 10566 10565 10565 10563 10562 10560 10558 10556 10555 10554 10551 10548 10546 10544 10542 10539 10536 10533 10530 10526 10522 10519 10515 10513 10512 10508 10505 10503 10502 10499
10551 10553 10554 10555 10556 10556 10556 10556 10557 10557 10559 10560 10561 10562 10561 10562 10564 10564 10563 10562 10563 10563 10563 10563 10565 10567 10567 10567 10568 10569 10569 10570 10570 10570 10570 10570 10570 10571 10570 10570 10569 10569 10568 10568 10569 10568 10568 10567 10567 10565 10563 10562 10561 10560 10559 10559 10559 10558 10556 10554 10552 10550 10548 10547 10545 10543 10540 10538 10535 10531 10529 10527 10523 10519 10515 10511 10507 10503 10502 10501 10497 10494 10493 10492 10489
10544 10545 10546 10547 10549 10549 10549 10549 10550 10551 10552 10553 10554 10555 10555 10556 10557 10556 10556 10556 10556 10556 10556 10556 10558 10559 10560 10561 10561 10561 10562 10562 10562 10562 10562 10562 10562 10562 10562 10562 10562 10562 10562 10562 10563 10563 10562 10561 10560 10558 10556 10555 10554 10553 10552 10551 10550 10549 10548 10546 10544 10542 10540 10538 10536 10534 10531 10529 10526 10522 10518 10514 10510 10507 10504 10499 10495 10491 10489 10488 10485 10482 10480 10478 10476
10536 10537 10537 10538 10540 10541 10542 10543 10544 10545 10546 10547 10547 10548 10548 10548 10549 10550 10550 10550 10550 10549 10549 10550 10550 10552 10553 10554 10555 10555 10555 10556 10556 10555 10555 10554 10554 10553 10553 10553 10553 10554 10554 10554 10555 10556 10555 10553 10550 10548 10547 10547 10546 10545 10544 10543 10542 10541 10540 10538 10536 10534 10531 10528 10525 10523 10521 10518 10515 10511 10507 10502 10498 10494 10491 10488 10484 10480 10478 10476 10474 10472 10469 10464 10461
10530 10530 10530 10530 10531 10533 10535 10537 10538 10539 10540 10540 10541 10541 10542 10542 10542 10543 10543 10543 10543 10544 10544 10544 10545 10545 10546 10547 10548 10548 10549 10549 10549 10548 10547 10547 10546 10545 10545 10545 10545 10545 10545 10545 10545 10547 10548 10544 10539 10538 10539 10540 10539 10538 10536 10534 10533 10531 10529 10528 10526 10524 10521 10518 10514 10511 10508 10505 10502 10499 10495 10490 10486 10482 10479 10476 10473 10470 10467 10465 10462 10460 10459 10456 10451
10525 10525 10525 10526 10527 10528 10530 10532 10533 10532 10532 10533 10534 10535 10536 10536 10536 10537 10537 10536 10536 10537 10537 10537 10539 10539 10539 10539 10539 10539 10540 10541 10540 10540 10540 10539 10538 10537 10537 10537 10537 10537 10537 10537 10537 10539 10540 10537 10532 10530 10531 10531 10530 10529 10527 10525 10523 10521 10518 10516 10514 10512 10509 10506 10503 10499 10495 10492 10489 10486 10482 10478 10474 10471 10467 10464 10462 10459 10457 10454 10449 10445 10443 10441 10437
10518 10519 10520 10522 10523 10523 10524 10526 10526 10526 10525 10526 10528 10529 10529 10530 10530 10531 10531 10531 10531 10531 10530 10530 10532 10532 10531 10531 10531 10531 10532 10532 10532 10532 10532 10532 10532 10531 10530 10530 10530 10529 10529 10529 10529 10530 10531 10529 10526 10524 10523 10521 10519 10517 10515 10514 10512 10510 10507 10504 10502 10499 10496 10493 10490 10487 10483 10479 10475 10472 10469 10465 10461 10458 10455 10452 10450 10448 10446 10443 10439 10435 10432 10427 10422
10510 10511 10513 10515 10516 10517 10518 10519 10519 10520 10520 10520 10521 10522 10523 10524 10525 10525 10525 10525 10525 10524 10524 10524 10525 10526 10526 10526 10526 10526 10526 10527 10526 10524 10524 10525 10525 10525 10524 10523 10523 10522 10522 10521 10520 10519 10520 10519 10518 10516 10514 10512 10509 10506 10504 10502 10500 10497 10494 10491 10488 10485 10483 10481 10478 10476 10472 10467 10463 10459 10455 10451 10447 10444 10441 10438 10436 10435 10433 10431 10428 10425 10423 10419 10413
10501 10503 10505 10507 10509 10510 10510 10511 10511 10512 10513 10514 10514 10516 10517 10517 10518 10517 10517 10517 10517 10517 10517 10517 10518 10519 10519 10520 10520 10520 10520 10520 10518 10516 10517 10518 10517 10517 10516 10515 10514 10514 10513 10512 10511 10510 10509 10508 10508 10507 10505 10502 10500 10497 10494 10491 10488 10485 10482 10478 10475 10473 10471 10469 10466 10462 10458 10454 10449 10445 10441 10438 10433 10430 10426 10422 10420 10419 10418 10416 10415 10412 10409 10406 10403
10493 10495 10497 10498 10500 10501 10502 10502 10503 10504 10505 10506 10507 10508 10508 10509 10509 10509 10509 10509 10510 10510 10510 10510 10510 10511 10512 10512 10512 10513 10513 10510 10507 10508 10510 10510 10508 10507 10506 10505 10504 10504 10504 10502 10501 10500 10499 10498 10497 10496 10494 10492 10490 10487 10484 10481 10477 10474 10470 10467 10464 10461 10458 10456 10452 10448 10444 10440 10436 10431 10428 10425 10421 10416 10412 10408 10405 10403 10402 10401 10399 10395 10393 10391 10388
10485 10486 10488 10489 10491 10493 10494 10494 10495 10496 10497 10498 10499 10499 10499 10499 10500 10501 10501 10502 10502 10502 10502 10502 10502 10503 10504 10503 10505 10506 10505 10500 10498 10499 10500 10500 10499 10498 10497 10496 10495 10495 10493 10492 10491 10489 10488 10487 10486 10485 10483 10481 10478 10475 10472 10469 10466 10462 10458 10454 10451 10447 10444 10441 10438 10435 10432 10428 10423 10418 10414 10411 10407 10404 10399 10394 10391 10389 10387 10385 10382 10378 10376 10375 10372
10477 10478 10479 10481 10482 10484 10485 10486 10487 10489 10489 10490 10490 10490 10490 10491 10491 10492 10492 10493 10493 10493 10493 10494 10495 10495 10494 10494 10497 10498 10495 10492 10490 10490 10489 10489 10489 10488 10487 10487 10486 10485 10484 10482 10481 10479 10477 10475 10473 10471 10469 10467 10464 10461 10458 10456 10453 10449 10445 10441 10437 10433 10430 10427 10424 10422 10419 10415 10410 10406 10402 10397 10393 10389 10385 10381 10377 10373 10371 10369 10366 10361 10359 10357 10353
10470 10471 10472 10472 10473 10475 10476 10477 10479 10480 10481 10482 10482 10482 10482 10482 10483 10483 10483 10484 10484 10484 10484 10485 10486 10485 10484 10485 10487 10488 10486 10484 10482 10481 10479 10479 10478 10477 10477 10476 10475 10474 10473 10471 10470 10468 10466 10463 10461 10458 10455 10453 10451 10448 10444 10442 10438 10435 10431 10427 10423 10419 10416 10413 10410 10408 10406 10402 10397 10393 10389 10385 10380 10376 10372 10367 10362 10357 10353 10352 10350 10347 10343 10340 10336
10461 10462 10463 10464 10465 10466 10468 10469 10469 10470 10471 10473 10473 10474 10474 10474 10475 10475 10475 10475 10475 10475 10475 10476 10476 10476 10476 10476 10477 10477 10477 10475 10474 10472 10471 10469 10468 10468 10467 10466 10465 10463 10462 10460 10458 10456 10454 10451 10448 10445 10442 10440 10437 10433 10429 10426 10423 10420 10417 10413 10410 10407 10403 10400 10397 10395 10393 10390 10385 10380 10376 10372 10368 10363 10359 10354 10348 10342 10337 10334 10333 10331 10328 10325 10321
10452 10453 10454 10455 10456 10458 10459 10460 10460 10461 10462 10463 10464 10465 10465 10466 10466 10466 10466 10466 10466 10466 10466 10467 10466 10466 10466 10466 10466 10466 10466 10466 10465 10463 10462 10461 10459 10458 10456 10454 10453 10451 10449 10448 10446 10443 10441 10438 10435 10432 10429 10426 10423 10420 10417 10414 10411 10408 10405 10402 10398 10395 10390 10387 10384 10381 10379 10376 10371 10366 10360 10356 10353 10349 10344 10339 10334 10328 10322 10318 10315 10313 10312 10309 10307
10443 10444 10446 10447 10448 10448 10449 10450 10451 10452 10453 10454 10456 10456 10457 10457 10457 10457 10457 10457 10457 10457 10457 10457 10457 10457 10456 10456 10456 10456 10456 10456 10455 10454 10453 10451 10450 10448 10446 10444 10442 10439 10437 10435 10433 10431 10428 10426 10423 10420 10417 10415 10412 10409 10405 10402 10400 10396 10393 10390 10386 10381 10377 10372 10369 10367 10364 10360 10357 10352 10345 10340 10336 10332 10328 10323 10318 10314 10309 10304 10300 10297 10295 10293 10292
10434 10435 10437 10438 10439 10439 10440 10440 10441 10442 10442 10444 10446 10447 10448 10448 10448 10448 10448 10448 10447 10447 10447 10447 10447 10446 10446 10446 10446 10446 10445 10445 10444 10443 10442 10441 10439 10437 10435 10433 10431 10429 10426 10424 10422 10419 10417 10414 10411 10409 10406 10403 10401 10398 10394 10391 10388 10385 10382 10378 10375 10370 10365 10360 10356 10352 10349 10344 10340 10335 10330 10325 10321 10316 10312 10306 10302 10299 10296 10291 10287 10284 10281 10279 10278
10425 10426 10428 10429 10429 10429 10430 10431 10431 10432 10432 10433 10435 10436 10437 10437 10438 10439 10439 10438 10437 10437 10437 10437 10436 10435 10435 10435 10434 10434 10433 10432 10431 10431 10430 10429 10427 10425 10423 10421 10419 10417 10414 10412 10409 10406 10404 10401 10398 10396 10394 10392 10389 10386 10383 10379 10376 10373 10369 10366 10362 10358 10353 10348 10344 10339 10335 10331 10325 10319 10315 10311 10307 10303 10297 10292 10287 10284 10282 10279 10274 10272 10269 10267 10266
10414 10416 10417 10418 10418 10419 10420 10421 10421 10422 10422 10423 10424 10425 10426 10426 10427 10428 10428 10427 10427 10427 10427 10426 10425 10425 10424 10424 10423 10422 10421 10420 10419 10418 10417 10416 10415 10413 10411 10409 10406 10404 10401 10399 10397 10394 10392 10389 10386 10384 10382 10379 10377 10373 10370 10366 10362 10358 10355 10351 10347 10343 10338 10334 10329 10325 10320 10316 10311 10305 10300 10296 10293 10289 10285 10280 10275 10272 10270 10267 10263 10260 10258 10257 10255
10401 10403 10404 10405 10406 10407 10409 10410 10410 10411 10412 10412 10412 10413 10414 10415 10415 10416 10416 10415 10416 10417 10416 10415 10414 10414 10413 10412 10412 10411 10410 10409 10407 10407 10406 10405 10403 10401 10399 10397 10394 10392 10389 10387 10385 10383 10380 10377 10374 10372 10369 10366 10363 10359 10355 10351 10347 10343 10339 10335 10331 10327 10322 10317 10313 10308 10304 10300 10295 10291 10286 10282 10278 10275 10272 10268 10264 10261 10258 10255 10252 10250 10249 10247 10244
10389 10389 10390 10391 10393 10395 10395 10397 10398 10399 10399 10400 10401 10402 10402 10403 10404 10404 10404 10404 10404 10405 10404 10402 10403 10403 10402 10400 10400 10400 10398 10397 10396 10395 10394 10393 10391 10389 10386 10385 10383 10381 10378 10376 10373 10371 10369 10365 10362 10359 10356 10353 10349 10345 10341 10337 10333 10329 10324 10320 10316 10311 10306 10302 10297 10293 10288 10284 10280 10276 10273 10268 10264 10261 10258 10255 10252 10249 10246 10244 10241 10239 10238 10237 10233
10375 10376 10377 10379 10381 10382 10383 10383 10385 10386 10387 10388 10389 10389 10390 10391 10392 10392 10392 10392 10392 10393 10392 10390 10389 10390 10389 10389 10388 10388 10386 10385 10383 10382 10381 10380 10378 10376 10373 10372 10371 10369 10366 10364 10361 10359 10356 10352 10349 10346 10343 10339 10336 10332 10328 10323 10319 10314 10310 10305 10300 10296 10291 10287 10282 10278 10274 10270 10267 10264 10260 10256 10252 10249 10247 10244 10240 10238 10236 10234 10231 10228 10227 10226 10223
10361 10362 10364 10366 10367 10369 10370 10370 10372 10374 10374 10375 10376 10377 10378 10379 10379 10379 10379 10379 10378 10379 10380 10378 10376 10376 10376 10376 10375 10375 10374 10372 10370 10368 10367 10366 10365 10363 10361 10359 10357 10355 10353 10351 10348 10346 10342 10339 10336 10332 10329 10326 10322 10318 10313 10309 10304 10300 10296 10291 10286 10281 10277 10273 10269 10265 10261 10258 10255 10252 10248 10244 10241 10238 10236 10232 10229 10227 10226 10225 10222 10219 10218 10216 10214
10347 10349 10351 10352 10354 10355 10356 10356 10358 10360 10361 10362 10363 10364 10365 10366 10366 10366 10367 10366 10365 10365 10365 10365 10364 10363 10363 10362 10361 10361 10360 10358 10356 10355 10354 10352 10351 10349 10348 10345 10343 10341 10339 10337 10334 10331 10328 10325 10322 10319 10315 10312 10308 10303 10299 10295 10290 10286 10281 10276 10272 10268 10264 10261 10257 10253 10249 10246 10243 10240 10237 10234 10231 10229 10226 10222 10219 10218 10217 10216 10213 10211 10209 10207 10206
10334 10336 10337 10338 10339 10340 10342 10343 10344 10345 10346 10348 10350 10351 10351 10352 10353 10354 10354 10353 10352 10352 10352 10351 10351 10350 10350 10349 10348 10347 10346 10345 10343 10342 10340 10338 10337 10336 10334 10332 10330 10328 10326 10323 10320 10317 10314 10311 10308 10305 10301 10297 10294 10290 10285 10281 10277 10272 10267 10263 10259 10256 10253 10250 10246 10242 10238 10235 10232 10229 10226 10223 10221 10219 10217 10214 10210 10209 10208 10207 10205 10203 10201 10199 10198
10321 10322 10323 10323 10324 10326 10328 10330 10331 10332 10332 10334 10336 10337 10338 10339 10340 10341 10341 10340 10339 10339 10339 10338 10338 10337 10337 10337 10335 10334 10333 10332 10331 10329 10327 10326 10324 10322 10320 10319 10317 10315 10312 10310 10307 10304 10301 10298 10295 10291 10288 10284 10280 10276 10272 10268 10263 10259 10255 10251 10248 10245 10242 10239 10236 10232 10228 10225 10222 10219 10216 10214 10212 10210 10208 10206 10203 10201 10200 10199 10197 10195 10193 10192 10190
10306 10308 10309 10309 10310 10312 10314 10316 10317 10318 10319 10320 10322 10323 10324 10325 10327 10327 10327 10327 10327 10327 10327 10326 10325 10324 10324 10324 10323 10322 10322 10321 10319 10318 10316 10314 10312 10310 10308 10306 10304 10302 10299 10297 10294 10292 10289 10286 10282 10279 10275 10271 10267 10264 10260 10255 10251 10247 10244 10241 10238 10235 10232 10229 10226 10222 10219 10216 10213 10210 10208 10206 10204 10202 10200 10198 10196 10194 10192 10190 10189 10187 10185 10184 10183
10292 10294 10296 10296 10296 10298 10301 10302 10303 10304 10305 10307 10308 10309 10311 10312 10312 10313 10313 10313 10314 10314 10314 10313 10313 10312 10311 10311 10311 10310 10309 10308 10307 10306 10304 10302 10300 10299 10297 10294 10292 10289 10287 10284 10282 10280 10277 10274 10270 10266 10262 10259 10256 10252 10248 10244 10241 10237 10234 10231 10228 10225 10223 10219 10216 10213 10210 10207 10205 10202 10200 10198 10196 10194 10192 10190 10188 10186 10184 10183 10181 10179 10178 10177 10176
10278 10280 10282 10282 10283 10284 10287 10288 10289 10290 10292 10293 10294 10295 10297 10298 10298 10299 10299 10300 10300 10300 10300 10300 10300 10300 10299 10298 10297 10297 10296 10296 10295 10293 10292 10290 10289 10287 10285 10283 10280 10277 10275 10272 10270 10267 10265 10261 10257 10253 10251 10248 10245 10241 10238 10234 10230 10227 10224 10222 10219 10216 10213 10210 10208 10205 10202 10199 10196 10194 10192 10190 10188 10187 10185 10183 10180 10179 10177 10176 10174 10172 10171 10170 10169
10263 10265 10268 10270 10271 10272 10273 10274 10275 10276 10278 10279 10280 10281 10283 10283 10285 10285 10286 10286 10286 10286 10286 10286 10286 10286 10286 10285 10285 10284 10283 10282 10282 10281 10279 10278 10276 10274 10272 10270 10268 10265 10262 10259 10258 10255 10253 10249 10246 10243 10240 10237 10234 10231 10227 10224 10220 10217 10215 10213 10210 10207 10205 10202 10199 10197 10194 10191 10188 10186 10184 10182 10181 10179 10177 10175 10173 10172 10170 10169 10167 10166 10165 10164 10163
10250 10251 10254 10256 10257 10258 10260 10261 10262 10262 10264 10265 10267 10268 10269 10270 10270 10271 10272 10272 10272 10272 10273 10273 10273 10273 10272 10272 10272 10271 10270 10270 10269 10268 10266 10265 10263 10261 10260 10258 10256 10254 10250 10247 10246 10244 10241 10238 10235 10233 10230 10227 10224 10221 10217 10214 10211 10208 10206 10204 10202 10199 10197 10194 10191 10188 10186 10184 10181 10179 10177 10175 10173 10172 10170 10169 10167 10165 10164 10162 10161 10160 10159 10158 10157
10238 10238 10239 10242 10244 10245 10247 10248 10249 10250 10251 10252 10254 10255 10255 10256 10257 10257 10258 10259 10259 10259 10259 10259 10259 10259 10259 10259 10259 10258 10258 10257 10256 10255 10254 10252 10250 10249 10247 10246 10244 10242 10239 10236 10235 10233 10230 10227 10225 10222 10220 10217 10215 10212 10209 10206 10203 10200 10198 10196 10194 10192 10189 10187 10184 10181 10178 10176 10174 10172 10170 10168 10167 10165 10164 10162 10160 10159 10158 10156 10155 10154 10153 10152 10151
10226 10226 10227 10229 10231 10233 10234 10235 10236 10238 10238 10239 10241 10241 10242 10242 10243 10244 10244 10245 10245 10245 10246 10246 10246 10246 10246 10246 10246 10246 10246 10245 10244 10243 10241 10240 10238 10237 10236 10234 10232 10231 10229 10226 10224 10222 10220 10218 10215 10212 10210 10208 10206 10203 10200 10198 10195 10193 10190 10189 10187 10184 10181 10179 10177 10174 10171 10169 10167 10165 10163 10162 10160 10159 10157 10156 10154 10153 10152 10150 10149 10148 10147 10146 10146
10214 10214 10215 10217 10218 10220 10221 10222 10224 10225 10226 10226 10227 10228 10229 10229 10230 10230 10231 10231 10232 10232 10233 10233 10233 10234 10234 10234 10234 10234 10233 10232 10232 10230 10229 10228 10227 10225 10224 10222 10220 10220 10218 10216 10214 10212 10210 10208 10206 10204 10201 10199 10197 10194 10192 10189 10187 10185 10183 10181 10179 10177 10174 10172 10169 10167 10164 10162 10160 10159 10157 10156 10154 10153 10151 10150 10148 10147 10146 10145 10144 10143 10142 10141 10140
10203 10203 10204 10206 10207 10208 10209 10210 10211 10212 10213 10214 10215 10216 10216 10217 10217 10218 10218 10219 10219 10220 10220 10221 10221 10221 10222 10222 10221 10221 10221 10220 10219 10218 10218 10217 10216 10214 10212 10211 10210 10209 10207 10206 10204 10202 10201 10199 10197 10195 10193 10191 10189 10186 10184 10181 10179 10177 10175 10173 10171 10170 10168 10165 10163 10161 10158 10156 10154 10153 10151 10150 10148 10147 10146 10144 10143 10141 10140 10139 10138 10137 10136 10136 10135